| time (UTC) | temp F | wind direction | speed MPH | gust MPH | rain 1hr in | rain 24hr in | rain mn in | humidity % | barometer mb |
| 20260905205004 | 57 | 322 | 2.0 | 13.0 | 0.01 | 0.47 | 0.41 | 91 | 1010.6 |
| 20260905204503 | 57 | 332 | 2.0 | 7.0 | 0.01 | 0.47 | 0.41 | 91 | 1010.5 |
| 20260905204003 | 57 | 354 | 2.0 | 6.0 | 0.01 | 0.47 | 0.41 | 92 | 1010.7 |
| 20260905203524 | 57 | 3 | 1.0 | 6.0 | 0.01 | 0.47 | 0.41 | 92 | 1010.6 |
| 20260905203003 | 57 | 17 | 1.0 | 6.0 | 0.01 | 0.47 | 0.41 | 92 | 1010.6 |
| 20260905202503 | 57 | 37 | 2.0 | 6.0 | 0.01 | 0.47 | 0.41 | 91 | 1010.6 |
| 20260905202025 | 57 | 51 | 1.0 | 4.0 | 0.00 | 0.46 | 0.41 | 91 | 1010.7 |
| 20260905201504 | 57 | 43 | 2.0 | 4.0 | 0.00 | 0.46 | 0.41 | 91 | 1010.7 |
| 20260905201004 | 57 | 36 | 2.0 | 4.0 | 0.00 | 0.46 | 0.41 | 91 | 1010.7 |
| 20260905200524 | 57 | 61 | 2.0 | 3.0 | 0.00 | 0.46 | 0.41 | 91 | 1010.8 |
| 20260905200003 | 57 | 57 | 2.0 | 6.0 | 0.00 | 0.46 | 0.41 | 90 | 1010.6 |
| 20260905195524 | 57 | 25 | 2.0 | 6.0 | 0.00 | 0.46 | 0.41 | 91 | 1010.7 |
| 20260905195004 | 58 | 41 | 2.0 | 6.0 | 0.00 | 0.46 | 0.41 | 90 | 1010.5 |
| 20260905194504 | 57 | 53 | 2.0 | 6.0 | 0.00 | 0.46 | 0.41 | 90 | 1010.6 |
| 20260905194004 | 57 | 51 | 2.0 | 8.0 | 0.00 | 0.46 | 0.41 | 90 | 1010.7 |
| 20260905193503 | 57 | 51 | 2.0 | 8.0 | 0.00 | 0.46 | 0.41 | 90 | 1010.6 |
| 20260905193003 | 57 | 31 | 2.0 | 7.0 | 0.00 | 0.46 | 0.41 | 90 | 1010.6 |
| 20260905192503 | 57 | 10 | 2.0 | 7.0 | 0.00 | 0.47 | 0.41 | 90 | 1010.6 |
| 20260905192003 | 57 | 42 | 2.0 | 10.0 | 0.00 | 0.47 | 0.41 | 90 | 1010.6 |
| 20260905191524 | 57 | 42 | 2.0 | 10.0 | 0.00 | 0.48 | 0.41 | 91 | 1010.7 |
| 20260905191003 | 57 | 27 | 2.0 | 6.0 | 0.00 | 0.48 | 0.41 | 91 | 1010.6 |
| 20260905190503 | 57 | 36 | 2.0 | 6.0 | 0.00 | 0.48 | 0.41 | 91 | 1010.5 |
| 20260905190003 | 57 | 33 | 2.0 | 4.0 | 0.00 | 0.48 | 0.41 | 91 | 1010.6 |
| 20260905185503 | 57 | 356 | 2.0 | 6.0 | 0.00 | 0.48 | 0.41 | 91 | 1010.5 |
| 20260905185003 | 57 | 326 | 2.0 | 9.0 | 0.00 | 0.48 | 0.41 | 91 | 1010.6 |
| 20260905184504 | 57 | 343 | 2.0 | 9.0 | 0.00 | 0.48 | 0.41 | 91 | 1010.5 |
| 20260905184024 | 57 | 7 | 2.0 | 7.0 | 0.00 | 0.48 | 0.41 | 91 | 1010.5 |
| 20260905183525 | 57 | 6 | 2.0 | 4.0 | 0.00 | 0.48 | 0.41 | 91 | 1010.5 |
| 20260905183004 | 57 | 21 | 2.0 | 7.0 | 0.00 | 0.48 | 0.41 | 91 | 1010.4 |
| 20260905182503 | 57 | 54 | 2.0 | 7.0 | 0.00 | 0.49 | 0.41 | 91 | 1010.2 |
| 20260905182025 | 57 | 87 | 2.0 | 9.0 | 0.00 | 0.52 | 0.41 | 91 | 1010.4 |
| 20260905181524 | 57 | 215 | 2.0 | 9.0 | 0.00 | 0.55 | 0.41 | 91 | 1010.3 |
| 20260905181003 | 57 | 38 | 2.0 | 7.0 | 0.00 | 0.56 | 0.41 | 91 | 1010.1 |
| 20260905180504 | 57 | 37 | 2.0 | 7.0 | 0.00 | 0.57 | 0.41 | 91 | 1010.1 |
| 20260905180004 | 57 | 14 | 2.0 | 9.0 | 0.00 | 0.57 | 0.41 | 91 | 1010.1 |
| 20260905175503 | 57 | 356 | 2.0 | 13.0 | 0.00 | 0.57 | 0.41 | 90 | 1009.9 |
| 20260905175004 | 57 | 26 | 2.0 | 13.0 | 0.00 | 0.57 | 0.41 | 91 | 1010.0 |
| 20260905174503 | 57 | 65 | 2.0 | 7.0 | 0.00 | 0.57 | 0.41 | 91 | 1009.8 |
| 20260905174003 | 57 | 88 | 2.0 | 7.0 | 0.00 | 0.57 | 0.41 | 91 | 1009.8 |
| 20260905173503 | 57 | 48 | 2.0 | 6.0 | 0.00 | 0.57 | 0.41 | 90 | 1009.6 |
| 20260905173003 | 57 | 51 | 2.0 | 6.0 | 0.00 | 0.57 | 0.41 | 91 | 1009.8 |
| 20260905172504 | 57 | 83 | 2.0 | 8.0 | 0.00 | 0.58 | 0.41 | 92 | 1009.9 |
| 20260905172004 | 57 | 109 | 1.0 | 8.0 | 0.00 | 0.58 | 0.41 | 93 | 1009.9 |
| 20260905171503 | 57 | 118 | 1.0 | 4.0 | 0.00 | 0.58 | 0.41 | 94 | 1009.9 |
| 20260905171004 | 57 | 106 | 1.0 | 4.0 | 0.00 | 0.58 | 0.41 | 94 | 1009.8 |
| 20260905170504 | 57 | 98 | 1.0 | 3.0 | 0.00 | 0.58 | 0.41 | 94 | 1009.8 |
| 20260905170003 | 57 | 95 | 1.0 | 3.0 | 0.00 | 0.58 | 0.41 | 94 | 1009.6 |
| 20260905165504 | 57 | 94 | 1.0 | 4.0 | 0.00 | 0.58 | 0.41 | 93 | 1009.8 |
| 20260905165003 | 57 | 100 | 2.0 | 6.0 | 0.00 | 0.58 | 0.41 | 92 | 1009.9 |
| 20260905164524 | 57 | 93 | 2.0 | 6.0 | 0.00 | 0.58 | 0.41 | 91 | 1009.6 |
| 20260905164004 | 57 | 80 | 2.0 | 4.0 | 0.00 | 0.58 | 0.41 | 91 | 1009.5 |
| 20260905163503 | 57 | 78 | 2.0 | 6.0 | 0.00 | 0.58 | 0.41 | 89 | 1009.4 |
| 20260905163003 | 57 | 63 | 2.0 | 6.0 | 0.00 | 0.58 | 0.41 | 89 | 1009.4 |
| 20260905162504 | 57 | 46 | 2.0 | 6.0 | 0.00 | 0.58 | 0.41 | 89 | 1009.3 |
| 20260905162003 | 57 | 65 | 2.0 | 7.0 | 0.00 | 0.58 | 0.41 | 88 | 1009.4 |
| 20260905161524 | 57 | 84 | 2.0 | 7.0 | 0.00 | 0.58 | 0.41 | 87 | 1009.3 |
| 20260905161003 | 58 | 70 | 2.0 | 7.0 | 0.00 | 0.58 | 0.41 | 86 | 1009.2 |
| 20260905160525 | 58 | 65 | 2.0 | 6.0 | 0.00 | 0.58 | 0.41 | 87 | 1009.2 |
| 20260905160004 | 58 | 70 | 2.0 | 6.0 | 0.00 | 0.58 | 0.41 | 86 | 1009.2 |
| 20260905155504 | 58 | 59 | 2.0 | 6.0 | 0.00 | 0.58 | 0.41 | 87 | 1009.1 |
| 20260905155003 | 58 | 51 | 3.0 | 9.0 | 0.00 | 0.58 | 0.41 | 86 | 1009.2 |
| 20260905154502 | 58 | 47 | 2.0 | 9.0 | 0.00 | 0.58 | 0.41 | 87 | 1009.1 |
| 20260905154003 | 58 | 48 | 2.0 | 8.0 | 0.00 | 0.59 | 0.41 | 88 | 1009.0 |
| 20260905153503 | 58 | 64 | 3.0 | 8.0 | 0.00 | 0.59 | 0.41 | 88 | 1009.1 |
| 20260905153003 | 59 | 82 | 2.0 | 7.0 | 0.00 | 0.59 | 0.41 | 89 | 1009.0 |
| 20260905152503 | 58 | 59 | 2.0 | 6.0 | 0.00 | 0.59 | 0.41 | 89 | 1008.9 |
| 20260905152003 | 58 | 56 | 2.0 | 6.0 | 0.00 | 0.60 | 0.41 | 90 | 1008.9 |
| 20260905151504 | 58 | 69 | 2.0 | 9.0 | 0.00 | 0.61 | 0.41 | 91 | 1009.1 |
| 20260905151024 | 58 | 65 | 3.0 | 9.0 | 0.00 | 0.62 | 0.41 | 90 | 1009.2 |
| 20260905150503 | 58 | 64 | 3.0 | 9.0 | 0.00 | 0.63 | 0.41 | 90 | 1009.1 |
| 20260905150024 | 58 | 65 | 3.0 | 9.0 | 0.00 | 0.63 | 0.41 | 90 | 1008.9 |
| 20260905145524 | 58 | 68 | 3.0 | 9.0 | 0.00 | 0.63 | 0.41 | 91 | 1009.1 |
| 20260905145003 | 59 | 40 | 3.0 | 9.0 | 0.00 | 0.64 | 0.41 | 89 | 1009.3 |
| 20260905144504 | 59 | 28 | 3.0 | 10.0 | 0.00 | 0.65 | 0.41 | 88 | 1009.1 |
| 20260905144025 | 59 | 56 | 3.0 | 10.0 | 0.00 | 0.67 | 0.41 | 88 | 1009.0 |
| 20260905143503 | 59 | 59 | 2.0 | 7.0 | 0.00 | 0.69 | 0.41 | 90 | 1008.9 |
| 20260905143004 | 59 | 54 | 2.0 | 8.0 | 0.00 | 0.70 | 0.41 | 90 | 1009.1 |
| 20260905142503 | 58 | 58 | 2.0 | 9.0 | 0.00 | 0.72 | 0.41 | 91 | 1009.1 |
| 20260905142024 | 58 | 80 | 2.0 | 9.0 | 0.00 | 0.72 | 0.41 | 91 | 1009.2 |
| 20260905141503 | 58 | 95 | 2.0 | 8.0 | 0.00 | 0.74 | 0.41 | 90 | 1009.0 |
| 20260905141003 | 59 | 95 | 2.0 | 7.0 | 0.00 | 0.74 | 0.41 | 90 | 1009.1 |
| 20260905140502 | 58 | 72 | 2.0 | 6.0 | 0.00 | 0.76 | 0.41 | 93 | 1009.2 |
| 20260905140005 | 58 | 67 | 2.0 | 4.0 | 0.00 | 0.76 | 0.41 | 95 | 1008.9 |
| 20260905135503 | 56 | 67 | 2.0 | 4.0 | 0.00 | 0.77 | 0.41 | 95 | 1009.2 |
| 20260905135003 | 56 | 59 | 2.0 | 8.0 | 0.00 | 0.78 | 0.41 | 94 | 1009.4 |
| 20260905134503 | 56 | 73 | 2.0 | 8.0 | 0.01 | 0.80 | 0.41 | 93 | 1009.2 |
| 20260905134024 | 56 | 53 | 2.0 | 6.0 | 0.02 | 0.81 | 0.41 | 94 | 1009.4 |
| 20260905133503 | 55 | 19 | 2.0 | 6.0 | 0.03 | 0.82 | 0.41 | 94 | 1009.2 |
| 20260905133003 | 55 | 33 | 2.0 | 6.0 | 0.04 | 0.82 | 0.41 | 94 | 1009.3 |
| 20260905132503 | 55 | 89 | 1.0 | 6.0 | 0.06 | 0.82 | 0.41 | 94 | 1009.2 |
| 20260905131503 | 55 | 39 | 2.0 | 8.0 | 0.08 | 0.82 | 0.41 | 94 | 1009.1 |
| 20260905131004 | 55 | 36 | 2.0 | 8.0 | 0.08 | 0.82 | 0.41 | 94 | 1009.3 |
| 20260905130503 | 55 | 68 | 2.0 | 8.0 | 0.08 | 0.82 | 0.41 | 93 | 1009.0 |
| 20260905130004 | 54 | 195 | 3.0 | 8.0 | 0.08 | 0.82 | 0.41 | 94 | 1009.2 |
| 20260905125503 | 54 | 259 | 2.0 | 8.0 | 0.08 | 0.82 | 0.41 | 94 | 1009.3 |
| 20260905125004 | 54 | 307 | 2.0 | 7.0 | 0.08 | 0.82 | 0.40 | 94 | 1009.3 |
| 20260905124503 | 55 | 325 | 3.0 | 8.0 | 0.07 | 0.82 | 0.40 | 93 | 1009.3 |
| 20260905124003 | 55 | 335 | 3.0 | 8.0 | 0.07 | 0.81 | 0.39 | 93 | 1009.3 |
| 20260905123504 | 56 | 347 | 3.0 | 8.0 | 0.05 | 0.80 | 0.37 | 92 | 1009.5 |
| 20260905123004 | 56 | 355 | 3.0 | 8.0 | 0.04 | 0.80 | 0.37 | 91 | 1009.4 |
| 20260905122503 | 57 | 327 | 3.0 | 9.0 | 0.03 | 0.78 | 0.35 | 90 | 1009.3 |
| 20260905122004 | 58 | 4 | 3.0 | 9.0 | 0.02 | 0.78 | 0.34 | 90 | 1009.2 |
| 20260905121503 | 58 | 359 | 3.0 | 10.0 | 0.00 | 0.76 | 0.33 | 88 | 1009.2 |
| 20260905121005 | 59 | 346 | 3.0 | 10.0 | 0.00 | 0.76 | 0.33 | 86 | 1008.9 |
| 20260905120504 | 59 | 335 | 3.0 | 8.0 | 0.00 | 0.76 | 0.33 | 87 | 1009.0 |
| 20260905120004 | 59 | 355 | 4.0 | 11.0 | 0.00 | 0.76 | 0.33 | 87 | 1008.9 |
| 20260905115503 | 60 | 30 | 4.0 | 13.0 | 0.01 | 0.76 | 0.33 | 87 | 1008.9 |
| 20260905115004 | 60 | 336 | 4.0 | 13.0 | 0.01 | 0.76 | 0.32 | 86 | 1008.8 |
| 20260905114504 | 61 | 349 | 3.0 | 10.0 | 0.01 | 0.76 | 0.32 | 86 | 1008.8 |
| 20260905114004 | 61 | 52 | 3.0 | 7.0 | 0.01 | 0.76 | 0.32 | 89 | 1008.7 |
| 20260905113504 | 61 | 82 | 2.0 | 10.0 | 0.01 | 0.76 | 0.32 | 90 | 1008.6 |
| 20260905094504 | 59 | 325 | 4.0 | 16.0 | 0.06 | 0.72 | 0.28 | 91 | 1007.8 |
| 20260905094003 | 60 | 349 | 3.0 | 9.0 | 0.04 | 0.70 | 0.26 | 91 | 1007.3 |
| 20260905093503 | 59 | 333 | 3.0 | 9.0 | 0.04 | 0.70 | 0.26 | 92 | 1007.1 |
| 20260905093026 | 59 | 354 | 4.0 | 14.0 | 0.04 | 0.70 | 0.26 | 93 | 1007.4 |
| 20260905092504 | 59 | 19 | 4.0 | 14.0 | 0.04 | 0.70 | 0.26 | 93 | 1007.3 |
| 20260905092004 | 58 | 37 | 3.0 | 11.0 | 0.04 | 0.70 | 0.26 | 94 | 1007.1 |
| 20260905091505 | 58 | 10 | 3.0 | 10.0 | 0.04 | 0.70 | 0.25 | 94 | 1007.2 |
| 20260905091003 | 58 | 336 | 4.0 | 9.0 | 0.03 | 0.69 | 0.25 | 93 | 1007.0 |
| 20260905090504 | 59 | 310 | 4.0 | 10.0 | 0.02 | 0.69 | 0.24 | 94 | 1007.0 |
| 20260905090004 | 58 | 4 | 4.0 | 10.0 | 0.02 | 0.68 | 0.23 | 93 | 1007.2 |
| 20260905085504 | 59 | 46 | 3.0 | 9.0 | 0.01 | 0.67 | 0.22 | 93 | 1007.0 |
| 20260905085004 | 59 | 69 | 4.0 | 11.0 | 0.01 | 0.67 | 0.22 | 92 | 1006.7 |
| 20260905084503 | 60 | 78 | 4.0 | 11.0 | 0.00 | 0.67 | 0.22 | 88 | 1006.9 |
| 20260905084003 | 61 | 68 | 3.0 | 10.0 | 0.00 | 0.66 | 0.22 | 86 | 1007.0 |
| 20260905083525 | 61 | 349 | 3.0 | 15.0 | 0.00 | 0.66 | 0.22 | 87 | 1006.7 |
| 20260905083005 | 60 | 8 | 3.0 | 15.0 | 0.00 | 0.66 | 0.22 | 85 | 1006.5 |
| 20260905082506 | 60 | 349 | 3.0 | 8.0 | 0.00 | 0.66 | 0.22 | 87 | 1006.6 |
| 20260905082006 | 61 | 303 | 4.0 | 13.0 | 0.00 | 0.66 | 0.22 | 84 | 1006.5 |
| 20260905081525 | 62 | 340 | 4.0 | 13.0 | 0.00 | 0.66 | 0.22 | 82 | 1006.6 |
| 20260905081005 | 61 | 347 | 4.0 | 10.0 | 0.00 | 0.66 | 0.22 | 85 | 1006.5 |
| 20260905080504 | 60 | 327 | 5.0 | 14.0 | 0.00 | 0.66 | 0.22 | 84 | 1006.7 |
| 20260905080005 | 61 | 316 | 5.0 | 15.0 | 0.00 | 0.66 | 0.22 | 82 | 1006.5 |
| 20260905075505 | 62 | 308 | 4.0 | 15.0 | 0.00 | 0.66 | 0.22 | 81 | 1006.2 |
| 20260905075005 | 61 | 322 | 3.0 | 18.0 | 0.00 | 0.66 | 0.22 | 82 | 1006.2 |
| 20260905074525 | 61 | 336 | 4.0 | 18.0 | 0.00 | 0.66 | 0.22 | 83 | 1006.3 |
| 20260905074026 | 61 | 330 | 3.0 | 10.0 | 0.00 | 0.66 | 0.22 | 83 | 1006.1 |
| 20260905073504 | 61 | 299 | 4.0 | 11.0 | 0.00 | 0.66 | 0.22 | 84 | 1006.0 |
| 20260905073027 | 60 | 323 | 4.0 | 14.0 | 0.00 | 0.66 | 0.22 | 83 | 1006.0 |
| 20260905072526 | 60 | 323 | 4.0 | 14.0 | 0.00 | 0.66 | 0.22 | 84 | 1006.1 |
| 20260905072004 | 60 | 334 | 4.0 | 14.0 | 0.02 | 0.66 | 0.22 | 86 | 1005.9 |
| 20260905071505 | 59 | 9 | 4.0 | 14.0 | 0.02 | 0.66 | 0.22 | 86 | 1005.8 |
| 20260905071005 | 59 | 27 | 3.0 | 9.0 | 0.02 | 0.66 | 0.22 | 89 | 1005.9 |
| 20260905070526 | 59 | 295 | 4.0 | 21.0 | 0.02 | 0.66 | 0.22 | 90 | 1005.7 |
| 20260905070006 | 59 | 314 | 4.0 | 21.0 | 0.02 | 0.66 | 0.22 | 90 | 1005.7 |
| 20260905065505 | 58 | 360 | 3.0 | 10.0 | 0.02 | 0.66 | 0.22 | 91 | 1005.5 |
| 20260905065006 | 58 | 115 | 3.0 | 10.0 | 0.02 | 0.66 | 0.22 | 94 | 1005.5 |
| 20260905064504 | 58 | 8 | 3.0 | 9.0 | 0.02 | 0.66 | 0.22 | 95 | 1005.4 |
| 20260905064005 | 57 | 360 | 3.0 | 14.0 | 0.02 | 0.66 | 0.22 | 96 | 1005.3 |
| 20260905063505 | 57 | 2 | 3.0 | 14.0 | 0.02 | 0.66 | 0.22 | 96 | 1005.3 |
| 20260905063006 | 57 | 21 | 2.0 | 8.0 | 0.02 | 0.66 | 0.22 | 96 | 1005.4 |
| 20260905062505 | 58 | 33 | 2.0 | 8.0 | 0.03 | 0.66 | 0.22 | 96 | 1005.1 |
| 20260905062004 | 58 | 54 | 2.0 | 8.0 | 0.01 | 0.64 | 0.19 | 97 | 1005.0 |
| 20260905061504 | 57 | 78 | 2.0 | 8.0 | 0.01 | 0.64 | 0.19 | 97 | 1004.9 |
| 20260905061005 | 57 | 64 | 2.0 | 8.0 | 0.03 | 0.64 | 0.19 | 97 | 1005.2 |
| 20260905060504 | 57 | 57 | 3.0 | 7.0 | 0.03 | 0.64 | 0.19 | 97 | 1004.9 |
| 20260905060005 | 57 | 66 | 2.0 | 7.0 | 0.03 | 0.64 | 0.19 | 97 | 1004.9 |
| 20260905055526 | 57 | 26 | 2.0 | 8.0 | 0.03 | 0.64 | 0.19 | 97 | 1004.8 |
| 20260905055005 | 57 | 27 | 3.0 | 8.0 | 0.03 | 0.64 | 0.19 | 97 | 1004.6 |
| 20260905054505 | 57 | 62 | 3.0 | 9.0 | 0.03 | 0.64 | 0.19 | 97 | 1004.5 |
| 20260905054005 | 56 | 55 | 3.0 | 9.0 | 0.03 | 0.64 | 0.19 | 97 | 1004.4 |
| 20260905053504 | 56 | 5 | 3.0 | 13.0 | 0.04 | 0.64 | 0.19 | 98 | 1004.7 |
| 20260905053026 | 56 | 19 | 3.0 | 13.0 | 0.04 | 0.64 | 0.19 | 98 | 1004.5 |
| 20260905052504 | 56 | 73 | 3.0 | 11.0 | 0.03 | 0.64 | 0.19 | 98 | 1004.4 |
| 20260905052005 | 56 | 87 | 3.0 | 8.0 | 0.03 | 0.63 | 0.19 | 97 | 1004.3 |
| 20260905051525 | 56 | 79 | 2.0 | 6.0 | 0.02 | 0.63 | 0.18 | 97 | 1004.0 |
| 20260905051026 | 56 | 85 | 2.0 | 6.0 | 0.01 | 0.61 | 0.17 | 97 | 1003.9 |
| 20260905050504 | 56 | 83 | 2.0 | 6.0 | 0.01 | 0.61 | 0.17 | 97 | 1004.0 |
| 20260905050005 | 56 | 76 | 2.0 | 6.0 | 0.01 | 0.61 | 0.17 | 97 | 1003.8 |
| 20260905045504 | 56 | 81 | 3.0 | 9.0 | 0.01 | 0.61 | 0.17 | 97 | 1004.0 |
| 20260905045004 | 56 | 84 | 3.0 | 9.0 | 0.01 | 0.61 | 0.17 | 97 | 1004.0 |
| 20260905044505 | 56 | 91 | 3.0 | 8.0 | 0.01 | 0.61 | 0.17 | 97 | 1003.8 |
| 20260905044005 | 56 | 92 | 2.0 | 7.0 | 0.01 | 0.61 | 0.17 | 97 | 1003.8 |
| 20260905043505 | 56 | 83 | 2.0 | 6.0 | 0.00 | 0.61 | 0.16 | 97 | 1003.8 |
| 20260905043005 | 56 | 80 | 2.0 | 4.0 | 0.00 | 0.61 | 0.16 | 96 | 1003.8 |
| 20260905042526 | 56 | 78 | 2.0 | 6.0 | 0.00 | 0.61 | 0.16 | 96 | 1003.7 |
| 20260905042005 | 56 | 62 | 2.0 | 6.0 | 0.00 | 0.61 | 0.16 | 96 | 1003.7 |
| 20260905041504 | 56 | 52 | 2.0 | 7.0 | 0.00 | 0.61 | 0.16 | 95 | 1003.7 |
| 20260905041005 | 56 | 53 | 2.0 | 10.0 | 0.00 | 0.61 | 0.16 | 94 | 1003.6 |
| 20260905040504 | 56 | 58 | 3.0 | 10.0 | 0.00 | 0.61 | 0.16 | 95 | 1003.5 |
| 20260905040006 | 56 | 54 | 2.0 | 9.0 | 0.01 | 0.61 | 0.16 | 94 | 1003.6 |
| 20260905035505 | 57 | 60 | 2.0 | 8.0 | 0.03 | 0.61 | 0.16 | 94 | 1003.5 |
| 20260905035005 | 57 | 55 | 2.0 | 8.0 | 0.03 | 0.61 | 0.16 | 94 | 1003.4 |
| 20260905034525 | 57 | 58 | 2.0 | 8.0 | 0.03 | 0.61 | 0.16 | 94 | 1003.4 |
| 20260905034005 | 57 | 49 | 2.0 | 8.0 | 0.03 | 0.61 | 0.16 | 94 | 1003.3 |
| 20260905033525 | 57 | 16 | 2.0 | 6.0 | 0.03 | 0.61 | 0.16 | 95 | 1003.5 |
| 20260905033026 | 57 | 24 | 2.0 | 8.0 | 0.03 | 0.61 | 0.16 | 95 | 1003.4 |
| 20260905032504 | 57 | 53 | 3.0 | 8.0 | 0.03 | 0.61 | 0.16 | 96 | 1003.4 |
| 20260905032004 | 57 | 53 | 2.0 | 6.0 | 0.04 | 0.61 | 0.16 | 96 | 1003.3 |
| 20260905031505 | 57 | 35 | 2.0 | 6.0 | 0.04 | 0.61 | 0.16 | 96 | 1003.2 |
| 20260905031005 | 57 | 23 | 2.0 | 6.0 | 0.04 | 0.61 | 0.16 | 96 | 1003.3 |
| 20260905030505 | 57 | 14 | 3.0 | 9.0 | 0.04 | 0.60 | 0.15 | 96 | 1003.4 |
| 20260905030005 | 57 | 10 | 3.0 | 9.0 | 0.03 | 0.59 | 0.15 | 95 | 1003.3 |
| 20260905025525 | 57 | 28 | 2.0 | 9.0 | 0.01 | 0.58 | 0.13 | 95 | 1003.2 |
| 20260905025005 | 56 | 67 | 2.0 | 6.0 | 0.01 | 0.57 | 0.13 | 95 | 1003.1 |
| 20260905024504 | 56 | 69 | 2.0 | 6.0 | 0.01 | 0.57 | 0.13 | 95 | 1003.1 |
| 20260905024005 | 56 | 64 | 2.0 | 9.0 | 0.01 | 0.57 | 0.13 | 95 | 1003.0 |
| 20260905023505 | 56 | 34 | 2.0 | 9.0 | 0.01 | 0.57 | 0.13 | 95 | 1003.1 |
| 20260905023006 | 56 | 340 | 2.0 | 7.0 | 0.01 | 0.57 | 0.13 | 94 | 1003.1 |
| 20260905022505 | 57 | 3 | 2.0 | 7.0 | 0.01 | 0.57 | 0.13 | 93 | 1003.1 |
| 20260905022004 | 57 | 24 | 2.0 | 6.0 | 0.00 | 0.57 | 0.12 | 92 | 1003.2 |
| 20260905021504 | 57 | 24 | 2.0 | 6.0 | 0.00 | 0.57 | 0.12 | 92 | 1003.1 |
| 20260905021005 | 57 | 76 | 2.0 | 6.0 | 0.00 | 0.57 | 0.12 | 91 | 1002.9 |
| 20260905020505 | 57 | 63 | 2.0 | 7.0 | 0.00 | 0.57 | 0.12 | 92 | 1002.9 |
| 20260905020006 | 57 | 340 | 3.0 | 8.0 | 0.00 | 0.57 | 0.12 | 92 | 1002.9 |
| 20260905015504 | 57 | 336 | 3.0 | 8.0 | 0.00 | 0.57 | 0.12 | 93 | 1002.7 |
| 20260905015004 | 57 | 345 | 2.0 | 7.0 | 0.00 | 0.57 | 0.12 | 93 | 1002.8 |
| 20260905014526 | 57 | 32 | 2.0 | 7.0 | 0.00 | 0.57 | 0.12 | 93 | 1002.8 |
| 20260905014005 | 56 | 1 | 2.0 | 8.0 | 0.00 | 0.57 | 0.12 | 94 | 1002.6 |
| 20260905013504 | 56 | 338 | 2.0 | 8.0 | 0.00 | 0.57 | 0.12 | 93 | 1002.6 |
| 20260905013005 | 56 | 356 | 2.0 | 9.0 | 0.00 | 0.57 | 0.12 | 93 | 1002.5 |
| 20260905012504 | 56 | 331 | 3.0 | 10.0 | 0.00 | 0.57 | 0.12 | 93 | 1002.6 |
| 20260905012004 | 56 | 334 | 3.0 | 11.0 | 0.00 | 0.57 | 0.12 | 93 | 1002.6 |
| 20260905011505 | 56 | 355 | 3.0 | 11.0 | 0.03 | 0.57 | 0.12 | 94 | 1002.6 |
| 20260905011005 | 56 | 6 | 3.0 | 11.0 | 0.03 | 0.57 | 0.12 | 94 | 1002.4 |
| 20260905010504 | 56 | 13 | 3.0 | 11.0 | 0.03 | 0.57 | 0.12 | 95 | 1002.4 |
| 20260905010006 | 56 | 10 | 3.0 | 11.0 | 0.03 | 0.57 | 0.12 | 95 | 1002.4 |
| 20260905005505 | 56 | 353 | 3.0 | 10.0 | 0.04 | 0.57 | 0.12 | 95 | 1002.3 |
| 20260905005005 | 57 | 338 | 3.0 | 11.0 | 0.04 | 0.57 | 0.12 | 95 | 1002.3 |
| 20260905004505 | 57 | 313 | 3.0 | 11.0 | 0.04 | 0.57 | 0.12 | 96 | 1002.3 |
| 20260905004004 | 57 | 344 | 3.0 | 10.0 | 0.05 | 0.57 | 0.12 | 96 | 1002.2 |
| 20260905003525 | 58 | 298 | 3.0 | 9.0 | 0.06 | 0.57 | 0.12 | 97 | 1002.0 |
| 20260905003005 | 58 | 304 | 4.0 | 13.0 | 0.06 | 0.57 | 0.12 | 97 | 1002.0 |
| 20260905002504 | 58 | 5 | 3.0 | 13.0 | 0.06 | 0.57 | 0.12 | 97 | 1001.7 |
| 20260905002004 | 58 | 338 | 3.0 | 10.0 | 0.06 | 0.57 | 0.12 | 97 | 1001.8 |
| 20260905001505 | 58 | 326 | 3.0 | 10.0 | 0.04 | 0.54 | 0.09 | 97 | 1001.5 |
| 20260905001005 | 58 | 351 | 4.0 | 17.0 | 0.04 | 0.54 | 0.09 | 97 | 1001.7 |
| 20260905000505 | 58 | 349 | 4.0 | 17.0 | 0.03 | 0.54 | 0.09 | 97 | 1001.6 |
| 20260905000005 | 58 | 349 | 3.0 | 11.0 | 0.03 | 0.54 | 0.09 | 97 | 1001.4 |
| 20260904235505 | 58 | 326 | 3.0 | 10.0 | 0.03 | 0.55 | 0.08 | 97 | 1001.3 |
| 20260904235005 | 58 | 338 | 4.0 | 11.0 | 0.02 | 0.55 | 0.08 | 97 | 1001.3 |
| 20260904234504 | 59 | 330 | 4.0 | 18.0 | 0.02 | 0.55 | 0.07 | 97 | 1001.1 |
| 20260904234026 | 59 | 322 | 4.0 | 18.0 | 0.02 | 0.54 | 0.07 | 96 | 1001.1 |
| 20260904233504 | 59 | 312 | 4.0 | 13.0 | 0.01 | 0.54 | 0.06 | 97 | 1001.2 |
| 20260904233004 | 59 | 321 | 4.0 | 11.0 | 0.01 | 0.54 | 0.06 | 96 | 1001.0 |
| 20260904232525 | 59 | 339 | 4.0 | 10.0 | 0.01 | 0.54 | 0.06 | 96 | 1000.6 |
| 20260904232025 | 59 | 325 | 4.0 | 11.0 | 0.02 | 0.53 | 0.06 | 97 | 1000.8 |
| 20260904231504 | 60 | 319 | 4.0 | 16.0 | 0.05 | 0.53 | 0.06 | 97 | 1000.6 |
| 20260904231004 | 60 | 340 | 5.0 | 16.0 | 0.05 | 0.53 | 0.06 | 97 | 1000.6 |
| 20260904230525 | 60 | 328 | 4.0 | 14.0 | 0.05 | 0.53 | 0.06 | 98 | 1000.5 |
| 20260904230026 | 60 | 324 | 4.0 | 13.0 | 0.06 | 0.53 | 0.06 | 98 | 1000.4 |
| 20260904225525 | 60 | 349 | 4.0 | 11.0 | 0.06 | 0.53 | 0.06 | 98 | 1000.5 |
| 20260904225005 | 60 | 354 | 4.0 | 11.0 | 0.08 | 0.53 | 0.06 | 98 | 1000.3 |
| 20260904224526 | 60 | 358 | 3.0 | 11.0 | 0.09 | 0.53 | 0.06 | 99 | 1000.2 |
| 20260904224004 | 60 | 9 | 3.0 | 11.0 | 0.09 | 0.52 | 0.05 | 99 | 1000.1 |
| 20260904223505 | 60 | 344 | 4.0 | 15.0 | 0.09 | 0.53 | 0.05 | 99 | 1000.0 |
| 20260904223005 | 60 | 56 | 4.0 | 15.0 | 0.10 | 0.53 | 0.05 | 99 | 1000.0 |
| 20260904222505 | 60 | 92 | 3.0 | 11.0 | 0.10 | 0.53 | 0.05 | 99 | 999.7 |
| 20260904222004 | 60 | 71 | 2.0 | 6.0 | 0.09 | 0.52 | 0.04 | 99 | 999.8 |
| 20260904221505 | 60 | 59 | 2.0 | 8.0 | 0.06 | 0.48 | 0.00 | 99 | 999.8 |
| 20260904221004 | 60 | 75 | 2.0 | 8.0 | 0.06 | 0.48 | 0.00 | 99 | 999.8 |
| 20260904220504 | 60 | 111 | 2.0 | 7.0 | 0.06 | 0.48 | 0.00 | 99 | 999.7 |
| 20260904220008 | 60 | 101 | 2.0 | 6.0 | 0.06 | 0.48 | 0.00 | 99 | 999.8 |
| 20260904215505 | 60 | 93 | 2.0 | 4.0 | 0.05 | 0.47 | 0.47 | 99 | 999.8 |
| 20260904215026 | 60 | 97 | 2.0 | 4.0 | 0.03 | 0.45 | 0.46 | 99 | 999.8 |
| 20260904214525 | 60 | 90 | 2.0 | 6.0 | 0.02 | 0.44 | 0.44 | 99 | 999.8 |
| 20260904214025 | 60 | 74 | 2.0 | 6.0 | 0.02 | 0.44 | 0.44 | 99 | 999.8 |
| 20260904213505 | 60 | 58 | 2.0 | 8.0 | 0.02 | 0.44 | 0.44 | 99 | 999.8 |
| 20260904213005 | 60 | 31 | 1.0 | 8.0 | 0.01 | 0.43 | 0.43 | 99 | 999.8 |
| 20260904212504 | 60 | 354 | 1.0 | 4.0 | 0.01 | 0.43 | 0.43 | 98 | 999.9 |
| 20260904212005 | 60 | 5 | 1.0 | 4.0 | 0.00 | 0.43 | 0.43 | 98 | 999.6 |
| 20260904211505 | 60 | 34 | 1.0 | 4.0 | 0.00 | 0.42 | 0.42 | 98 | 999.8 |
| 20260904211005 | 60 | 39 | 1.0 | 4.0 | 0.00 | 0.42 | 0.42 | 98 | 999.9 |
| 20260904210504 | 60 | 40 | 1.0 | 4.0 | 0.00 | 0.42 | 0.42 | 98 | 1000.0 |
| 20260904210026 | 60 | 38 | 1.0 | 3.0 | 0.00 | 0.42 | 0.42 | 98 | 1000.1 |
| 20260904205504 | 60 | 355 | 2.0 | 4.0 | 0.00 | 0.42 | 0.42 | 98 | 1000.0 |